Wetbulb
71.21 70.96 71.78 71.47 62.35 62.07 54.49 55.88 59.31 58.76 60.28 63.88 64.96 62.58 60.46 61.47 60.99 57.50 68.58 67.32 71.70 71.59 71.41 71.99 73.53 72.73 72.09 72.69 71.63 71.81 71.29 70.36 68.88 67.86 67.30 67.41 66.14 66.06 66.65 66.08 65.74 65.73 65.94 66.09 65.88 65.88 65.93 65.75 65.75
68.93 71.99 71.78 68.01 60.10 52.77 54.06 58.88 58.26 60.66 63.41 65.10 63.19 63.11 62.03 60.29 65.06 65.87 65.23 68.02 71.45 71.92 72.45 70.74 73.55 72.32 72.07 72.00 70.93 71.62 70.51 69.36 68.16 67.22 67.06 65.61 65.29 66.13 65.94 65.54 65.46 65.70 66.02 66.27 66.17 66.10 66.13 66.11 65.72
68.10 71.76 67.56 63.93 59.62 53.91 54.55 59.46 60.60 62.84 64.24 64.49 62.56 62.79 62.79 61.85 66.67 66.85 66.56 68.93 70.87 71.29 72.20 72.06 73.05 72.22 72.48 71.26 70.61 70.63 69.36 69.09 67.62 67.06 66.46 64.89 65.53 65.92 65.92 66.19 66.38 66.61 66.83 67.01 66.94 66.97 67.19 67.16 67.14
70.53 70.22 68.36 60.72 54.24 57.48 58.15 59.60 61.99 62.64 64.26 65.17 64.36 60.50 63.30 65.97 65.12 65.50 67.50 70.40 70.36 70.75 70.93 72.32 73.30 72.36 71.60 70.72 70.05 69.41 69.30 68.39 67.76 66.81 65.46 65.09 65.26 65.38 65.68 65.92 66.38 66.46 66.77 67.43 67.25 66.74 66.43 66.68 66.77
71.38 67.91 55.68 56.10 56.31 58.24 60.15 61.61 62.24 61.94 62.92 63.81 64.06 60.17 60.45 63.85 65.92 67.18 68.80 70.84 69.86 70.43 70.32 71.25 73.28 72.34 71.36 70.01 68.94 67.89 67.26 68.42 68.29 66.39 65.60 65.60 65.15 65.02 65.24 65.46 65.92 66.38 67.03 66.86 66.88 66.51 66.24 66.35 66.30
64.10 61.75 56.61 53.94 57.05 59.13 61.33 63.27 63.37 60.68 64.20 64.19 63.40 62.08 61.79 65.95 66.81 68.20 69.54 70.37 70.64 70.73 70.67 71.13 72.70 71.99 70.83 69.66 68.16 67.07 67.60 67.94 67.54 66.70 65.84 65.43 65.29 65.78 66.06 66.11 65.89 66.28 66.33 66.84 66.33 66.38 65.73 65.87 66.20
62.94 61.15 57.02 54.68 54.44 59.06 60.90 64.70 63.08 63.29 63.90 63.69 66.11 61.42 63.83 66.12 68.20 69.18 69.91 70.77 70.65 71.62 71.31 71.06 70.99 70.87 70.46 69.50 67.54 67.60 68.16 67.76 67.73 67.03 66.35 66.54 66.90 67.43 67.49 67.11 66.95 66.44 66.52 65.98 65.08 65.85 66.15 66.20 66.20
62.11 59.32 56.73 57.01 55.93 57.57 61.74 63.41 64.29 64.24 63.15 66.84 67.41 62.59 62.33 66.63 68.73 69.27 69.55 70.65 71.13 71.07 71.43 71.48 71.00 69.42 68.25 67.06 67.81 67.84 68.10 68.00 67.70 66.90 66.90 66.95 67.41 67.78 67.73 68.88 67.62 66.93 66.04 64.58 64.98 65.69 65.69 66.20 66.98
65.34 56.44 53.10 56.02 58.64 59.89 63.19 62.14 64.85 66.90 61.84 65.24 64.03 66.02 67.05 67.71 68.72 68.55 68.81 69.72 70.68 70.74 71.39 72.07 72.06 70.73 70.10 66.81 66.54 67.65 67.81 67.78 67.51 67.03 67.59 68.98 66.74 67.21 67.74 69.18 68.53 67.03 65.30 65.24 65.63 65.98 66.52 66.82 67.03
59.67 56.15 55.82 60.87 61.33 60.88 62.48 63.10 63.62 64.61 61.24 61.35 63.50 65.65 66.34 67.53 67.83 68.01 68.09 68.26 69.99 70.44 70.79 71.30 71.29 71.34 70.21 68.14 66.17 66.98 66.70 66.40 66.67 67.23 67.86 67.62 68.18 65.71 67.53 67.46 68.54 67.00 66.16 65.97 66.41 67.62 67.97 66.78 63.87
62.46 58.59 61.43 61.97 62.18 63.46 62.68 62.88 65.56 63.85 61.83 62.21 62.35 63.77 66.63 67.64 68.30 67.97 68.17 68.11 69.14 70.79 71.01 71.67 72.78 73.49 72.07 68.48 68.43 69.39 69.48 69.54 69.60 69.86 70.07 70.29 68.15 65.22 65.39 65.47 64.97 65.63 66.28 64.51 65.58 64.85 64.93 64.74 64.37
59.88 61.30 62.22 62.30 63.48 63.66 62.39 64.26 64.23 64.83 64.47 65.93 65.75 66.61 67.59 67.66 67.49 68.19 67.96 69.15 70.06 69.56 70.81 72.20 71.98 72.70 75.01 71.86 71.01 72.18 72.05 70.72 68.98 69.49 70.18 70.17 68.72 68.19 67.13 66.29 67.00 67.03 66.19 65.78 66.51 64.82 64.85 64.13 65.00
60.37 61.15 62.88 63.81 63.78 62.89 64.11 62.97 63.65 64.37 66.10 65.91 66.68 66.78 66.87 67.69 68.28 69.50 70.04 70.03 70.40 70.22 71.52 73.04 73.67 72.68 73.47 73.02 73.04 72.83 72.22 70.90 69.79 69.66 69.85 70.52 69.23 68.20 68.23 66.98 66.19 66.38 66.35 66.27 65.15 65.12 64.35 64.83 64.64
61.89 62.42 61.43 62.28 62.87 63.60 63.00 63.10 64.58 65.70 66.98 65.17 65.99 66.21 67.47 68.23 68.20 68.57 68.26 66.81 70.12 71.95 73.97 73.98 73.59 74.07 73.16 72.98 74.82 72.38 72.51 73.04 72.12 70.96 68.97 69.76 69.77 69.61 68.91 67.91 67.45 67.24 66.60 65.96 65.42 64.03 64.43 65.23 64.24
62.95 58.34 58.38 60.23 62.11 61.45 63.07 57.91 60.48 66.17 66.63 65.13 65.25 66.21 66.80 66.91 68.06 67.96 67.77 69.46 69.87 71.20 76.00 75.32 75.45 73.64 73.07 72.85 72.92 72.89 72.21 70.56 71.64 71.64 70.07 69.91 70.45 70.42 69.96 68.72 67.22 68.09 66.81 66.01 66.47 65.39 64.98 64.77 64.00
59.54 58.58 53.43 58.37 61.31 63.07 61.44 51.46 59.01 66.05 66.00 65.07 65.54 66.03 66.15 67.47 66.98 67.65 68.69 70.47 72.29 72.92 75.00 77.17 74.45 74.08 74.27 72.92 72.88 71.13 70.95 72.37 72.43 72.50 69.26 69.24 70.08 70.73 70.70 68.08 68.16 67.55 66.77 67.14 66.45 64.87 64.77 64.16 64.27
57.72 51.67 55.62 57.43 60.98 60.33 61.25 57.46 62.74 66.46 66.05 65.10 65.48 66.13 65.79 65.97 67.47 69.76 68.63 68.60 70.57 73.33 75.40 77.09 77.98 73.96 73.63 75.57 73.23 72.53 72.47 72.69 74.07 72.72 70.87 69.24 69.03 68.96 69.22 68.57 68.45 67.98 66.95 66.58 65.19 65.98 64.90 63.96 63.40
53.70 54.13 55.10 55.88 57.84 60.47 59.38 60.47 63.15 64.34 63.74 64.23 65.52 64.86 64.84 65.79 67.21 69.46 69.21 68.81 70.25 72.69 75.18 76.29 77.20 77.72 75.39 74.18 74.54 71.95 71.65 73.37 73.85 71.79 71.24 70.05 68.91 69.14 69.63 68.65 68.38 67.44 66.77 66.33 66.99 65.59 65.93 64.51 63.49
56.38 55.43 54.99 57.62 59.81 57.50 58.99 59.23 61.56 63.36 63.17 63.17 63.19 64.34 65.10 66.38 68.25 68.96 68.72 68.72 69.71 72.62 74.01 76.14 76.39 77.85 75.65 73.44 71.41 70.67 69.99 72.06 72.26 72.33 71.11 70.11 69.44 69.47 70.97 69.24 68.16 68.06 66.64 66.54 66.27 65.71 65.58 64.13 65.45
56.45 55.33 55.07 57.75 58.28 59.24 58.64 58.39 60.22 60.59 62.21 63.21 63.71 64.22 64.74 66.44 67.94 68.57 69.33 69.64 70.56 71.78 73.25 74.75 75.74 76.42 75.62 73.60 73.43 72.19 70.90 69.77 69.18 71.76 71.24 70.50 70.09 69.61 70.75 69.67 69.23 67.95 66.78 66.05 65.62 66.15 64.46 64.39 64.44
55.92 55.02 54.67 54.41 56.53 58.60 57.85 56.21 55.27 58.32 60.24 63.20 63.95 65.19 66.55 65.43 65.85 68.55 69.49 70.51 69.60 70.19 71.80 73.07 74.71 75.11 75.15 75.24 74.76 73.61 72.29 71.79 70.46 70.06 70.97 69.54 69.83 69.93 69.99 70.18 69.24 68.98 66.82 65.38 66.88 66.24 64.90 62.38 62.26
54.18 57.15 55.57 54.85 55.19 50.85 58.14 49.74 53.72 56.30 57.76 60.21 61.13 63.50 65.01 65.48 66.75 67.47 68.47 70.79 71.10 70.41 71.49 72.58 73.37 74.65 74.40 75.25 73.69 73.69 70.24 68.12 67.61 70.65 70.10 69.29 69.13 69.10 69.37 69.83 69.98 68.39 68.00 66.26 66.28 66.31 65.62 65.58 62.59
55.17 57.61 55.75 57.34 54.76 54.12 52.26 50.43 53.02 55.29 52.39 54.98 60.64 63.05 63.99 64.47 64.55 64.85 66.10 68.02 71.16 72.22 70.87 72.04 73.33 74.29 74.71 74.05 74.41 72.83 70.63 69.01 70.68 70.75 71.11 69.32 68.85 70.29 68.94 69.41 68.98 67.23 68.21 67.55 67.51 66.55 66.02 65.52 64.14
58.52 57.44 58.05 57.73 54.68 48.99 50.43 49.86 50.29 54.50 55.91 56.95 62.09 61.17 61.74 63.07 64.40 65.75 66.96 67.95 68.89 72.09 71.80 71.94 72.34 73.33 73.98 74.10 73.53 72.51 71.38 71.64 69.53 70.20 68.37 69.57 69.10 69.19 69.66 69.61 69.90 69.50 68.94 68.13 66.38 66.95 66.57 66.44 65.73
57.69 56.49 49.86 49.58 49.70 46.11 54.80 51.91 53.25 56.87 58.56 60.43 59.70 61.10 62.43 63.22 63.66 64.83 65.96 66.03 68.63 69.21 70.83 71.46 71.68 71.84 72.94 72.81 72.38 72.00 71.45 71.23 69.94 69.73 67.02 68.25 66.24 67.61 68.71 69.47 69.54 68.64 69.37 68.46 67.81 67.38 66.78 66.45 64.59
55.21 55.14 50.80 45.67 46.26 48.25 55.10 47.35 51.74 56.45 58.00 60.32 61.12 62.70 62.97 63.63 63.98 64.22 66.15 65.93 65.71 67.71 70.73 69.95 71.47 71.29 71.94 71.63 71.92 72.45 72.17 70.11 69.72 69.24 67.95 68.77 67.90 66.21 68.08 67.72 69.35 69.10 68.97 68.33 67.39 67.14 66.28 66.14 65.11
55.03 52.49 56.78 53.47 52.84 50.04 51.11 52.22 56.00 56.85 57.28 59.79 61.60 62.69 63.06 64.12 63.89 63.40 65.38 65.83 66.35 68.81 70.47 69.97 70.86 72.59 72.48 70.27 70.71 70.32 69.83 71.03 69.38 70.56 70.24 69.34 70.07 69.35 67.05 68.02 69.01 68.56 68.98 68.41 67.72 65.94 65.55 65.69 65.52
56.26 58.23 53.29 52.74 47.84 45.26 45.31 48.43 51.15 55.84 56.87 60.05 59.64 62.28 63.67 64.42 62.93 62.57 64.42 67.07 67.33 67.20 68.95 69.96 69.70 70.64 72.50 71.61 71.83 71.80 72.09 71.28 70.62 70.45 69.38 69.53 70.50 70.84 68.11 68.51 69.07 69.54 68.75 68.68 66.79 66.09 65.50 65.22 65.34
55.17 54.37 55.96 56.21 53.64 47.25 44.24 48.43 58.10 56.50 56.08 56.58 58.42 62.86 63.65 63.48 62.37 62.30 63.92 66.21 67.47 66.91 65.93 69.05 69.09 70.38 71.56 72.01 71.98 72.30 72.82 71.29 70.79 70.39 69.32 69.91 69.96 70.49 69.56 69.56 69.73 68.61 68.06 68.05 67.29 66.48 65.14 65.07 64.33
57.23 55.39 56.27 51.64 50.75 53.14 50.15 49.50 58.11 57.19 57.22 57.91 57.94 63.70 64.53 63.76 63.25 62.75 63.70 65.43 67.40 66.82 66.57 68.55 69.60 69.05 70.34 70.03 70.95 67.88 71.87 71.12 69.05 70.42 70.35 70.59 69.68 70.12 69.61 69.07 68.88 68.14 67.66 67.62 65.92 65.59 64.87 62.56 63.00
MSLP
1007.61 1007.86 1007.50 1006.26 1005.30 1003.35 1001.02 1001.38 1001.73 1002.49 1003.53 1004.29 1004.41 1004.72 1006.16 1006.87 1006.97 1008.60 1009.41 1009.95 1010.93 1012.45 1013.50 1013.90 1014.47 1014.81 1015.04 1015.37 1015.61 1015.75 1015.96 1016.15 1016.29 1016.47 1016.63 1016.72 1016.79 1016.82 1016.77 1016.79 1016.83 1016.80 1016.76 1016.71 1016.69 1016.69 1016.74 1016.79 1016.82
1007.01 1006.47 1006.08 1004.49 1003.32 1001.67 1000.89 1001.13 1002.21 1002.70 1003.11 1003.59 1004.33 1004.93 1006.35 1007.38 1007.87 1008.85 1009.63 1010.11 1010.93 1012.01 1012.84 1013.86 1014.58 1014.94 1015.18 1015.47 1015.65 1015.87 1016.11 1016.28 1016.46 1016.56 1016.65 1016.75 1016.78 1016.83 1016.91 1016.91 1016.88 1016.81 1016.75 1016.70 1016.68 1016.72 1016.71 1016.70 1016.56
1007.31 1006.24 1005.18 1003.42 1002.69 1001.02 1000.63 1001.16 1001.91 1002.43 1002.93 1003.26 1004.54 1005.85 1006.46 1007.38 1007.93 1008.82 1009.70 1010.14 1010.75 1011.55 1012.78 1014.01 1014.55 1014.95 1015.32 1015.61 1015.87 1016.01 1016.21 1016.45 1016.64 1016.75 1016.79 1016.84 1016.85 1016.88 1016.89 1016.90 1016.92 1016.91 1016.81 1016.72 1016.61 1016.52 1016.48 1016.51 1016.52
1006.16 1005.08 1004.14 1003.39 1000.95 1000.74 1000.66 1001.26 1001.27 1001.79 1002.57 1002.94 1004.16 1005.88 1007.11 1007.40 1007.85 1009.02 1009.64 1010.31 1010.64 1011.57 1013.07 1014.23 1014.65 1014.99 1015.39 1015.63 1015.91 1016.15 1016.33 1016.55 1016.75 1016.88 1016.91 1016.94 1016.99 1017.02 1017.00 1016.95 1016.93 1016.88 1016.79 1016.69 1016.56 1016.42 1016.32 1016.26 1016.23
1005.20 1004.93 1006.34 1003.68 1001.49 1001.17 1000.87 1001.15 1000.87 1001.85 1001.69 1002.82 1004.18 1006.04 1007.20 1008.00 1008.62 1009.23 1009.65 1009.92 1010.30 1011.56 1013.18 1014.15 1014.61 1014.94 1015.30 1015.63 1015.87 1016.17 1016.40 1016.51 1016.67 1016.85 1016.99 1016.98 1016.99 1017.03 1016.97 1017.01 1016.97 1016.88 1016.83 1016.69 1016.57 1016.51 1016.41 1016.27 1016.19
1004.74 1006.74 1006.95 1005.55 1003.07 1001.40 1000.89 1000.88 1001.49 1002.28 1002.91 1004.59 1004.87 1005.94 1007.28 1008.12 1008.70 1009.34 1009.58 1009.73 1010.17 1011.15 1012.59 1013.97 1014.54 1014.83 1015.25 1015.51 1015.81 1016.07 1016.31 1016.45 1016.59 1016.76 1016.94 1017.01 1017.03 1017.01 1016.93 1016.93 1017.01 1017.03 1016.94 1016.76 1016.67 1016.52 1016.39 1016.28 1016.11
1003.70 1005.93 1005.47 1005.75 1005.16 1002.42 1001.27 1001.20 1001.77 1002.37 1002.95 1003.84 1004.72 1006.14 1007.42 1007.79 1008.43 1009.06 1009.35 1009.70 1010.01 1010.81 1012.34 1013.64 1014.35 1014.95 1015.21 1015.45 1015.76 1016.03 1016.21 1016.42 1016.56 1016.74 1016.82 1016.81 1016.76 1016.68 1016.68 1016.75 1016.85 1016.89 1016.84 1016.75 1016.67 1016.49 1016.29 1016.17 1015.96
1005.58 1007.54 1007.26 1005.98 1003.85 1002.57 1001.56 1000.99 1001.96 1002.55 1003.41 1003.70 1004.27 1005.28 1006.69 1007.51 1008.17 1008.72 1008.95 1009.42 1009.79 1010.56 1011.44 1012.58 1013.69 1014.44 1014.87 1015.32 1015.71 1016.01 1016.21 1016.39 1016.49 1016.54 1016.49 1016.58 1016.55 1016.52 1016.61 1016.66 1016.71 1016.75 1016.75 1016.71 1016.52 1016.28 1016.09 1016.01 1015.80
1006.47 1009.04 1007.20 1005.28 1001.92 1001.72 1000.95 1000.81 1001.94 1004.20 1006.72 1004.73 1004.73 1004.55 1006.31 1007.48 1008.05 1008.25 1008.51 1008.86 1009.32 1009.95 1010.54 1011.21 1012.05 1013.08 1013.50 1014.45 1015.61 1015.97 1016.13 1016.16 1016.23 1016.31 1016.13 1016.24 1016.19 1015.96 1016.29 1016.25 1016.33 1016.56 1016.53 1016.49 1016.37 1016.12 1015.98 1015.83 1015.64
1004.89 1005.80 1005.35 1002.10 1001.52 1000.84 1001.05 1001.17 1001.83 1004.39 1006.89 1006.99 1006.36 1005.40 1006.65 1007.49 1007.74 1007.86 1008.13 1008.23 1008.64 1009.26 1009.95 1010.37 1010.91 1011.57 1012.12 1013.64 1015.10 1015.36 1015.63 1015.81 1015.85 1015.82 1015.76 1015.65 1015.47 1015.44 1015.59 1015.83 1016.19 1016.24 1016.36 1016.30 1016.31 1015.96 1015.78 1015.93 1015.62
1001.65 1002.25 1001.68 1001.67 1002.06 1001.17 1000.98 1001.58 1002.38 1003.63 1005.52 1006.15 1005.35 1005.76 1006.67 1007.24 1007.44 1007.50 1007.46 1008.16 1008.86 1009.02 1009.35 1009.87 1010.56 1011.13 1011.70 1013.19 1014.13 1014.29 1014.58 1014.90 1015.15 1015.25 1015.55 1015.38 1015.28 1015.49 1015.43 1015.57 1015.92 1016.01 1016.00 1016.15 1016.02 1015.86 1015.67 1015.06 1014.88
1001.03 1001.22 1001.71 1001.88 1001.62 1001.23 1001.52 1001.82 1002.86 1003.55 1004.12 1005.07 1005.05 1005.87 1006.37 1006.77 1006.84 1007.01 1007.15 1007.63 1008.08 1008.45 1008.71 1009.25 1010.09 1010.95 1011.83 1012.55 1013.04 1013.35 1013.61 1014.05 1014.56 1014.94 1015.28 1015.38 1015.26 1015.13 1015.09 1015.03 1015.15 1015.20 1015.34 1015.33 1015.45 1015.17 1015.19 1015.32 1015.09
1000.59 1001.20 1001.95 1001.76 1001.78 1001.99 1002.17 1002.28 1002.76 1003.76 1004.27 1004.80 1005.11 1005.79 1005.93 1006.13 1006.31 1006.69 1006.95 1007.07 1007.30 1007.58 1008.25 1008.83 1009.56 1010.69 1011.71 1012.51 1012.96 1013.23 1013.59 1013.78 1014.29 1014.59 1014.97 1014.99 1015.07 1015.05 1015.05 1015.18 1015.24 1015.15 1015.28 1015.14 1015.27 1015.16 1015.42 1015.25 1015.03
1001.56 1003.52 1003.55 1003.22 1002.33 1002.16 1003.14 1004.39 1004.24 1004.47 1004.41 1004.72 1005.05 1005.37 1005.32 1005.67 1005.92 1006.37 1006.76 1007.05 1007.42 1007.53 1007.77 1008.25 1009.47 1010.61 1011.37 1012.19 1012.95 1013.26 1013.48 1013.36 1013.68 1013.92 1014.41 1014.81 1015.06 1015.02 1015.00 1015.03 1015.06 1015.18 1015.34 1015.36 1015.29 1015.43 1015.60 1015.37 1014.96
1003.89 1006.11 1008.81 1004.58 1003.17 1002.39 1004.19 1005.98 1006.20 1005.41 1004.98 1004.74 1005.23 1005.30 1005.21 1005.46 1005.73 1006.37 1006.88 1007.46 1007.96 1007.97 1007.96 1008.22 1009.00 1010.25 1011.13 1011.97 1012.64 1013.14 1013.29 1013.14 1013.31 1013.60 1014.11 1014.49 1014.87 1015.17 1015.31 1015.14 1015.15 1014.97 1015.25 1015.29 1015.13 1015.17 1015.23 1015.29 1015.00
1004.22 1006.03 1008.74 1004.46 1003.11 1002.52 1004.26 1007.28 1006.19 1005.89 1005.19 1004.81 1004.93 1005.02 1005.35 1005.29 1005.72 1006.09 1006.85 1007.67 1008.20 1008.27 1008.18 1008.25 1008.72 1009.98 1010.73 1011.47 1012.23 1012.83 1012.89 1012.79 1012.95 1013.36 1013.73 1014.18 1014.65 1015.09 1015.24 1015.23 1015.03 1015.12 1015.37 1015.21 1015.17 1015.25 1015.20 1015.06 1014.97
1004.48 1005.07 1005.11 1004.32 1003.57 1002.67 1002.31 1004.89 1005.51 1005.00 1004.46 1004.57 1004.91 1004.93 1005.01 1005.44 1005.68 1006.41 1007.11 1007.59 1008.33 1008.70 1008.66 1008.83 1009.08 1009.81 1010.86 1011.54 1012.20 1012.67 1012.63 1012.60 1012.70 1013.15 1013.32 1013.81 1014.25 1014.61 1015.11 1014.98 1014.96 1015.14 1015.26 1015.17 1015.27 1015.19 1015.28 1015.29 1015.15
1002.69 1003.28 1003.36 1002.17 1003.39 1002.51 1002.46 1003.60 1004.32 1004.35 1004.44 1004.49 1004.37 1004.84 1004.68 1004.97 1005.37 1006.43 1007.21 1007.84 1008.51 1008.95 1009.08 1009.24 1009.58 1009.93 1010.65 1011.45 1012.14 1012.61 1012.58 1012.48 1012.60 1012.97 1013.26 1013.60 1013.93 1014.20 1014.69 1014.83 1014.73 1015.13 1015.31 1015.15 1015.47 1015.58 1015.63 1015.47 1015.20
1000.88 1000.68 1000.77 1001.61 1002.27 1002.91 1003.34 1003.88 1003.41 1003.29 1004.39 1004.23 1004.43 1004.66 1004.70 1004.50 1005.42 1006.44 1007.13 1007.87 1008.68 1009.09 1009.33 1009.58 1009.94 1010.35 1010.85 1011.47 1012.17 1012.43 1012.33 1012.33 1012.59 1012.70 1012.95 1013.12 1013.55 1013.87 1014.23 1014.63 1014.83 1015.03 1015.26 1015.25 1015.63 1015.71 1015.69 1015.50 1015.14
1000.31 1000.10 1000.43 1000.35 1000.67 1001.78 1003.42 1004.87 1006.24 1006.86 1006.34 1004.92 1004.67 1004.78 1004.95 1004.61 1004.80 1005.76 1006.68 1007.53 1008.32 1009.21 1009.66 1009.99 1010.27 1010.68 1011.08 1011.50 1011.69 1011.80 1011.79 1011.92 1012.25 1012.44 1012.57 1012.83 1013.31 1013.80 1013.93 1014.46 1014.65 1014.82 1015.06 1015.33 1015.59 1015.74 1015.84 1015.63 1015.13
999.89 999.76 1000.07 1000.59 1001.03 1001.62 1004.10 1007.24 1008.85 1010.16 1008.78 1007.67 1005.95 1004.87 1004.50 1004.57 1004.70 1005.26 1005.95 1006.86 1007.74 1008.71 1009.51 1010.01 1010.34 1010.73 1011.19 1011.35 1011.47 1011.72 1012.07 1012.25 1012.51 1012.64 1012.67 1012.90 1013.21 1013.52 1013.75 1014.07 1014.45 1014.83 1014.95 1015.27 1015.52 1015.69 1015.82 1015.80 1015.55
999.78 999.99 1000.65 1001.23 1002.29 1004.59 1006.89 1009.23 1011.24 1011.46 1009.41 1007.73 1009.70 1006.13 1004.31 1004.32 1004.66 1004.81 1005.34 1005.97 1006.99 1007.99 1008.82 1009.45 1010.08 1010.62 1011.22 1011.53 1011.52 1011.72 1012.29 1012.43 1012.37 1012.43 1012.51 1012.70 1012.84 1013.29 1013.52 1013.72 1013.98 1014.59 1014.85 1015.06 1015.32 1015.46 1015.53 1015.67 1015.66
1000.41 1000.67 1001.17 1002.26 1003.47 1006.14 1007.56 1009.95 1012.58 1012.23 1010.27 1007.91 1006.68 1004.76 1004.22 1003.96 1004.08 1004.29 1004.65 1005.22 1006.01 1007.09 1008.21 1009.16 1010.03 1010.66 1011.22 1011.59 1011.83 1012.09 1012.31 1012.52 1012.24 1012.44 1012.55 1012.44 1012.73 1013.02 1013.31 1013.43 1013.73 1014.26 1014.65 1014.89 1015.04 1015.11 1015.43 1015.43 1015.54
1000.55 1000.75 1001.24 1003.54 1005.43 1007.29 1007.88 1010.17 1013.04 1011.57 1010.01 1008.32 1005.52 1004.76 1004.09 1003.30 1003.49 1004.02 1004.71 1005.35 1006.04 1006.76 1007.77 1008.75 1009.69 1010.51 1011.17 1011.57 1011.99 1012.31 1012.46 1012.47 1012.51 1012.61 1012.74 1012.49 1012.61 1012.80 1012.95 1013.07 1013.54 1013.83 1014.39 1014.63 1014.85 1015.01 1015.07 1015.22 1015.31
1000.09 1000.51 1001.16 1002.87 1005.74 1006.76 1007.13 1009.40 1010.50 1009.23 1008.83 1007.78 1005.08 1004.23 1003.88 1003.45 1003.72 1004.37 1005.24 1005.90 1006.63 1007.48 1008.18 1008.28 1008.98 1009.94 1010.66 1011.36 1011.75 1012.08 1012.46 1012.56 1012.69 1012.76 1012.82 1012.63 1012.43 1012.35 1012.55 1012.85 1013.32 1013.57 1013.82 1014.16 1014.51 1014.77 1014.83 1014.90 1015.11
1000.61 1000.96 1001.73 1002.58 1003.91 1005.29 1007.35 1011.23 1011.40 1010.35 1009.58 1007.80 1004.56 1004.04 1003.99 1004.09 1004.61 1004.84 1005.59 1006.37 1006.83 1007.52 1008.28 1008.50 1008.75 1009.45 1010.16 1010.60 1011.11 1011.51 1011.98 1012.26 1012.35 1012.58 1012.57 1012.60 1012.27 1012.19 1012.44 1012.65 1012.92 1013.35 1013.49 1013.81 1014.19 1014.44 1014.53 1014.65 1014.63
1000.60 1001.21 1001.73 1002.91 1003.46 1005.21 1009.26 1012.93 1012.41 1012.54 1009.98 1006.09 1004.12 1003.81 1004.21 1004.43 1004.85 1005.03 1005.75 1006.51 1007.08 1007.61 1008.14 1008.57 1008.98 1009.05 1009.79 1010.55 1011.04 1011.32 1011.58 1011.85 1012.18 1012.13 1012.45 1012.25 1011.95 1011.89 1011.95 1012.47 1012.56 1013.13 1013.29 1013.38 1013.65 1013.83 1013.95 1014.13 1014.32
1000.80 1001.26 1002.01 1003.19 1004.10 1005.96 1010.19 1010.99 1010.78 1010.93 1009.93 1006.76 1005.44 1004.16 1003.96 1004.13 1004.57 1005.09 1005.62 1006.51 1007.15 1007.64 1008.13 1008.73 1009.11 1009.37 1010.30 1010.73 1010.95 1011.19 1011.47 1011.57 1011.90 1012.01 1011.95 1011.75 1011.58 1011.63 1011.96 1012.21 1012.33 1012.62 1012.79 1012.96 1013.34 1013.61 1013.69 1013.59 1013.65
1000.42 1001.06 1002.20 1003.09 1004.69 1006.31 1007.94 1009.22 1010.17 1010.44 1009.18 1007.38 1006.06 1003.99 1003.72 1003.83 1004.63 1005.13 1005.65 1006.40 1007.10 1007.81 1008.42 1008.90 1009.38 1009.83 1010.36 1010.59 1010.77 1010.72 1010.90 1010.99 1011.23 1011.54 1011.51 1011.51 1011.53 1011.56 1011.59 1011.69 1011.85 1012.18 1012.35 1012.53 1012.64 1012.70 1013.02 1013.24 1013.35
1001.47 1001.96 1001.98 1002.67 1003.97 1005.12 1006.83 1007.87 1007.98 1007.80 1008.27 1005.80 1005.46 1003.83 1004.19 1004.25 1004.67 1005.10 1005.78 1006.43 1007.28 1008.04 1008.71 1009.12 1009.78 1010.23 1010.40 1010.41 1010.10 1010.50 1010.64 1010.74 1010.80 1011.11 1011.10 1011.25 1011.33 1011.34 1011.35 1011.42 1011.56 1011.57 1011.58 1011.71 1012.01 1012.34 1012.70 1013.26 1013.12
Wind_Speed
5 8 8 8 6 8 15 17 14 14 16 10 6 16 18 16 12 9 11 12 21 16 12 12 11 9 8 8 7 7 7 6 6 5 5 6 5 6 6 6 6 6 6 6 6 7 6 5 4
9 14 11 7 10 5 12 17 14 10 10 12 16 17 15 15 15 15 11 13 18 14 13 12 11 10 9 8 7 8 6 5 4 4 4 5 5 6 6 6 6 6 7 7 7 6 6 5 5
11 13 10 13 7 1 13 15 9 12 9 11 22 18 12 10 17 11 14 15 14 14 14 13 13 9 9 8 7 7 6 5 4 3 3 3 4 5 6 6 7 6 6 6 6 6 6 5 4
7 8 9 13 8 10 12 7 3 14 11 12 18 13 12 8 12 16 15 15 14 17 15 14 13 11 9 8 6 5 6 6 5 4 3 2 3 3 4 5 5 6 7 7 7 6 6 7 7
12 4 3 8 15 4 10 7 4 7 13 16 19 17 15 15 16 15 13 12 13 19 15 14 13 12 10 8 7 6 5 6 6 5 4 4 3 1 1 2 3 5 7 7 8 7 6 7 8
6 7 9 7 22 8 10 6 8 21 17 21 19 17 15 15 15 13 12 10 12 18 17 14 14 13 11 9 7 7 7 7 7 6 5 4 4 4 4 3 2 4 5 7 7 7 6 6 7
13 12 3 17 10 6 9 14 14 10 8 9 21 10 11 14 15 14 11 10 12 18 17 14 12 11 11 9 8 7 8 7 6 5 5 7 8 9 8 6 4 3 4 4 5 7 8 8 8
11 8 17 5 12 5 3 9 11 11 7 8 24 13 12 17 14 12 12 11 11 11 17 16 14 12 10 10 11 9 8 8 7 7 9 10 12 12 11 8 7 5 2 4 5 7 8 9 10
27 5 12 27 12 14 10 9 11 32 38 18 12 20 18 14 14 13 11 11 9 10 9 15 17 16 15 14 11 10 10 10 10 9 13 10 8 10 10 5 10 6 7 8 9 11 10 10 11
11 9 12 7 11 7 9 13 9 18 23 2 8 17 15 13 12 11 9 10 11 11 9 9 8 13 13 12 13 10 10 8 8 9 8 7 4 3 4 7 10 11 11 11 11 14 14 11 7
4 5 13 11 6 6 11 12 19 11 13 16 12 17 15 12 8 10 10 7 9 12 8 9 8 6 6 13 9 6 6 6 4 3 1 3 4 3 4 4 5 5 10 6 9 10 7 3 3
7 7 7 10 4 10 13 9 15 10 11 19 16 16 14 12 9 9 7 10 9 11 12 12 12 9 2 4 4 4 2 4 6 5 5 2 2 2 2 2 2 4 4 3 5 2 4 4 2
13 9 14 2 11 9 3 10 7 10 9 4 17 12 13 10 12 7 5 3 5 4 12 13 11 11 7 5 3 2 3 3 7 6 5 0 4 1 2 3 4 1 3 2 3 1 3 5 5
18 29 31 20 4 11 6 14 3 7 8 7 11 12 11 12 3 4 0 7 5 6 2 1 12 12 10 7 3 3 4 3 2 4 7 4 3 1 3 3 1 2 1 3 1 4 3 4 3
28 21 5 34 15 11 17 20 13 2 7 11 10 5 2 5 11 6 6 7 9 6 2 4 11 15 11 10 7 3 4 7 5 3 8 4 4 2 3 3 1 1 3 4 2 1 4 4 3
11 11 8 30 18 10 18 6 32 19 9 9 9 10 7 5 6 11 9 6 6 6 3 4 8 16 12 11 7 6 6 4 4 4 6 7 5 3 3 5 3 4 2 4 1 3 4 2 1
3 7 12 22 28 26 2 15 23 17 8 10 8 6 8 7 5 8 5 7 5 4 3 4 2 14 13 7 6 6 7 4 2 3 4 9 7 8 5 5 4 3 3 2 2 2 1 3 3
13 21 20 8 7 23 7 19 14 9 10 8 7 7 9 8 11 10 4 6 6 5 3 3 2 4 10 8 5 6 7 3 3 4 4 8 5 6 6 4 3 2 4 2 3 3 4 4 4
14 17 16 9 14 18 12 10 7 15 9 8 5 9 7 7 15 10 6 6 6 4 4 3 3 4 5 5 6 6 6 4 3 3 6 6 5 6 6 3 5 4 3 2 1 2 4 4 3
14 16 14 12 12 7 10 12 16 23 19 8 11 10 9 9 11 11 9 6 3 5 3 2 4 5 4 4 4 5 4 4 4 4 4 5 6 5 4 6 4 6 1 4 3 2 3 4 1
16 13 15 17 20 4 15 16 12 7 25 23 13 5 10 2 3 10 10 8 9 8 6 5 4 6 5 6 3 2 3 3 1 3 2 4 4 4 6 5 4 1 2 2 4 3 4 3 4
14 19 21 18 18 10 21 5 7 9 14 22 23 37 11 9 9 7 6 12 10 11 10 7 6 5 5 5 4 4 2 3 5 3 4 5 8 6 6 6 5 4 3 4 5 4 3 1 5
15 18 15 12 11 7 9 1 2 5 6 24 15 7 5 5 7 5 3 5 8 12 10 7 7 5 3 5 4 2 4 5 4 1 5 2 5 6 7 6 6 6 4 4 4 1 3 2 3
10 14 2 10 5 7 6 9 4 10 9 19 7 5 2 4 9 13 14 13 12 8 8 8 10 7 6 4 4 4 6 3 4 1 5 3 4 6 6 5 5 6 5 4 4 5 5 5 4
10 14 9 3 1 6 8 9 9 17 16 24 10 10 4 6 13 13 14 12 12 10 10 4 11 9 7 5 5 5 6 5 7 3 6 6 3 3 8 7 5 6 6 6 5 5 5 5 4
13 13 7 14 11 14 7 2 3 14 21 23 5 8 5 10 10 8 13 10 9 6 7 7 4 9 9 8 7 6 6 5 5 6 7 6 3 2 4 6 6 6 6 6 6 5 5 6 6
7 10 13 16 14 4 10 9 12 6 19 25 12 11 7 6 5 9 15 11 9 7 7 6 6 3 5 7 4 3 5 5 6 6 5 7 5 4 6 12 7 7 6 7 6 6 7 6 5
12 9 7 5 11 7 8 7 6 9 21 14 25 12 9 3 10 7 12 11 8 9 9 10 8 7 10 6 3 2 3 6 6 6 6 7 4 5 4 5 5 6 6 6 7 6 9 8 5
5 4 1 3 3 2 2 7 6 4 5 15 26 5 9 8 8 8 10 9 9 10 11 9 7 11 5 2 2 4 3 5 6 4 6 4 6 5 5 5 4 6 7 6 7 7 8 6 6
11 14 13 4 4 4 3 4 13 19 20 25 16 8 9 5 8 10 9 9 11 10 9 9 9 9 6 5 4 5 3 5 3 2 6 3 5 5 7 7 8 7 7 6 7 6 4 5 13
Wind_Direction
214 218 229 253 249 276 72 72 59 57 75 77 66 64 68 43 23 91 98 96 98 105 126 141 137 134 125 113 102 113 115 109 99 86 74 60 58 64 57 39 28 25 32 37 30 21 24 24 24
254 241 232 270 266 287 71 79 65 74 131 122 55 66 76 71 89 112 112 113 111 138 139 133 138 134 124 120 116 116 116 107 96 81 63 57 70 63 56 55 53 46 40 37 37 33 28 21 16
248 251 260 235 213 346 81 91 116 110 88 75 92 58 68 100 98 94 123 115 118 110 99 123 135 136 128 123 118 122 122 123 115 97 63 54 67 67 65 57 51 44 38 30 22 15 6 2 356
264 220 249 265 61 39 79 107 122 137 107 101 106 85 86 83 96 115 142 117 147 119 118 130 135 134 136 133 132 135 141 137 137 134 116 107 85 65 54 47 36 26 21 15 13 12 358 345 339
241 350 301 291 98 43 97 110 300 113 115 93 102 106 98 93 109 129 139 162 121 118 125 138 144 142 144 143 140 143 151 154 153 144 147 149 150 176 13 1 7 8 2 1 1 9 357 341 330
264 139 230 335 8 145 107 82 49 94 37 31 112 106 109 124 129 140 153 146 141 133 134 142 149 150 150 148 147 150 153 157 152 154 163 180 205 223 229 245 292 326 340 343 343 336 335 321 309
247 336 357 101 327 310 76 102 70 48 89 119 94 114 132 153 133 146 162 147 135 132 135 139 149 152 155 153 155 155 157 158 163 164 192 215 229 230 230 232 247 281 305 338 324 313 310 305 293
59 54 354 336 174 30 93 92 100 100 101 86 130 135 151 126 150 150 158 157 153 157 145 156 149 161 168 162 162 163 164 171 181 199 222 231 239 241 240 233 227 239 270 269 261 264 274 283 282
57 54 216 247 111 173 223 119 83 62 33 16 50 102 114 133 158 165 156 170 165 157 168 158 168 165 183 152 162 167 183 193 202 214 237 234 238 223 219 173 167 210 224 239 243 252 255 261 266
107 217 229 19 27 13 39 102 124 97 122 283 293 99 117 146 162 166 180 182 172 169 191 188 173 166 152 150 150 181 186 196 202 211 210 218 183 59 169 171 182 204 222 231 245 255 254 248 246
360 75 18 48 352 354 61 67 93 84 128 181 147 124 139 150 177 180 206 159 184 210 170 175 155 124 150 133 169 188 177 181 169 133 345 342 337 195 212 170 185 213 222 226 221 246 247 324 343
210 80 66 49 26 34 31 78 97 92 66 183 128 136 149 176 178 208 187 187 228 182 191 183 162 142 139 133 174 133 182 157 164 156 176 252 253 208 282 61 289 200 133 185 236 302 70 267 285
324 39 26 119 72 29 308 54 75 91 102 101 126 150 176 167 196 198 183 200 254 222 184 185 159 146 153 122 177 132 226 156 126 157 167 256 302 40 278 49 301 24 345 353 357 1 51 299 225
23 37 7 336 17 93 53 25 8 110 139 157 137 187 175 142 40 48 354 31 9 356 294 146 145 137 144 150 245 144 241 186 163 176 149 157 298 110 313 211 11 277 318 342 36 49 335 277 320
83 63 285 285 279 108 79 25 304 48 190 157 194 179 164 178 166 159 83 57 34 348 52 140 145 149 154 159 193 185 192 221 167 189 137 171 170 170 301 270 243 232 44 301 315 240 204 259 197
46 6 132 275 271 146 98 206 250 253 178 172 202 189 182 165 253 129 107 93 62 8 349 170 169 146 159 163 169 193 220 242 161 166 155 164 171 246 231 275 204 76 331 261 266 251 298 257 291
272 224 198 233 350 323 103 180 221 187 195 158 186 180 204 168 134 103 117 102 70 51 341 102 185 151 156 162 159 203 236 203 177 178 184 170 187 191 199 288 109 84 290 290 351 354 58 317 264
226 236 232 111 214 321 47 103 136 145 164 174 191 175 168 225 168 123 159 100 99 86 59 148 183 134 148 159 170 188 242 204 205 180 209 156 182 214 171 238 132 125 271 267 67 37 341 322 297
312 320 349 112 154 191 59 90 149 165 144 151 186 174 210 216 130 134 145 133 123 127 143 164 184 146 146 154 179 226 214 183 188 225 202 164 176 221 163 230 160 166 258 101 35 322 254 264 206
290 308 347 307 2 14 102 64 41 31 321 183 203 170 240 199 153 148 161 146 155 133 138 165 181 157 181 200 192 217 208 196 180 186 208 174 168 210 182 186 277 183 67 147 196 251 309 295 193
317 318 346 332 326 334 13 60 48 50 294 316 326 224 172 304 56 166 183 157 154 151 164 181 191 163 193 250 191 86 38 49 44 280 186 167 189 227 215 172 201 110 123 244 181 212 258 307 312
309 348 331 330 0 48 360 68 77 239 282 320 91 258 179 141 184 163 185 183 175 167 163 170 176 175 192 264 266 150 204 235 213 244 206 190 185 205 236 190 186 189 193 230 185 209 227 290 290
316 322 319 21 13 353 350 34 264 309 252 247 265 100 108 208 133 181 149 123 155 164 153 166 158 166 229 191 274 306 196 288 250 21 301 180 163 189 214 227 178 182 188 262 258 164 211 248 283
301 287 211 53 25 340 208 174 267 227 232 253 166 98 205 228 149 78 54 52 47 116 144 150 152 161 173 216 212 273 313 287 307 286 320 213 194 190 203 212 188 189 196 231 244 227 217 216 262
236 299 315 258 49 234 237 231 185 221 242 278 157 165 121 20 59 65 57 36 60 42 34 354 151 156 169 201 215 217 235 260 285 267 269 282 239 179 189 193 223 195 186 214 237 254 240 210 216
317 299 310 321 327 352 178 84 232 275 306 287 162 120 80 55 55 68 86 52 44 62 57 14 73 151 169 186 199 208 226 228 239 230 253 266 262 265 53 194 198 230 190 203 235 249 226 230 218
322 319 346 332 287 332 69 5 304 315 278 281 181 115 101 96 98 70 96 78 50 62 101 50 31 116 86 61 77 211 214 216 254 279 273 245 245 266 199 217 183 224 226 222 221 230 244 236 228
246 295 331 333 317 23 143 208 230 185 237 330 338 135 115 196 79 68 89 93 63 41 64 58 6 62 83 79 100 276 259 244 244 265 262 271 306 314 307 211 201 210 241 237 246 245 241 237 229
193 223 238 299 313 22 293 122 127 91 163 272 248 149 138 96 60 62 85 79 77 53 31 61 18 79 71 73 234 258 213 234 219 233 272 257 249 249 257 246 226 224 226 234 229 230 254 263 235
29 337 303 310 339 210 211 161 193 180 208 224 249 133 80 54 74 68 63 66 82 63 46 61 48 40 10 345 268 81 301 307 43 299 260 234 261 235 246 255 244 235 225 208 228 246 249 24 281